星链-2269 (STARLINK-2269 )

导读 | 豆包AI

STARLINK-2269是美国太空探索技术公司(SpaceX)星链(Starlink)星座中的卫星,于2021年5月9日发射入轨,属于星链互联网星座的组网卫星之一,主要为全球范围提供低延迟、高速率的宽带互联网接入服务。星链星座通过大规模低轨卫星组网,助力改善偏远地区网络覆盖,也支撑部分商用与特殊通信需求。

基本信息
目录编号:
48447
目录名称:
STARLINK-2269
国际标识:
2021-040V
轨道中心:
EARTH
卫星名称:
星链-2269
卫星全名:
星链-2269 (STARLINK-2269 )
卫星状态:
已陨落 最后检测时间 2024-05-16
发射日期:
2021-05-09 UTC
国别 :
美国 (US)
星等 :
--
轨道信息
数据来源 国际轨道数据
星历时间: 2024-05-17T03:32:24+0800
轨道信息已过期666天
半长轴: 6541.981km
偏心率: 0.000519
轨道倾角: 53.041°
近地点辐角 303.109°
升交点赤经 233.735°
平近点角 158.873°
近地点: 160.45km
远地点: 167.242km
周期: 87.765分钟
每日圈数: 16.407367
详细信息
固有亮度:
5
最大亮度:
2.5
卫星平台:
Starlink V1.0
覆盖范围:
全球
运营商:
太空探索技术公司
运营商所在国:
美国
制造商(研发单位):
太空探索技术公司
制造商所在国:
美国
使用方式:
暂无
卫星简介
星链(Starlink)计划是由太空探索技术公司(SpaceX)提出的一个巨型低轨卫星互联网星座项目,计划在2019年至2024年间在太空搭建由约1.2万颗卫星组成的“星链”网络,其中1584颗将部署在地球上空550千米处的近地轨道,并从2020年开始工作。该卫星已陨落。